Temperature
18 18 18 18 18 18 18 18 18 18 18 18 18 19 19 19 19 19 18 18 18 18 18 18 18 18 18 18 17 17 17 17 17 17 17 17 16 16 16 16 16 16 16
18 18 18 18 18 18 18 18 18 18 18 18 18 18 18 18 18 18 18 18 18 18 18 18 18 18 18 18 17 17 17 17 17 17 17 17 16 16 16 16 16 16 16
18 18 18 18 18 18 18 18 18 18 18 18 18 18 18 18 18 18 18 18 18 18 18 18 18 18 18 17 17 17 17 17 17 17 17 16 16 16 16 16 16 16 16
18 18 18 18 18 18 18 18 18 18 18 18 18 18 18 18 18 18 18 18 18 18 18 18 18 18 18 18 17 17 17 17 17 17 16 16 16 16 16 16 16 16 16
18 18 18 18 18 18 18 18 18 18 18 18 18 18 18 18 18 18 18 18 18 18 18 18 17 17 17 17 17 17 17 17 17 16 16 16 16 16 16 16 16 16 16
18 18 18 18 18 18 18 18 18 18 18 18 18 18 18 18 18 18 18 18 18 17 17 17 17 17 17 17 17 17 17 17 16 16 16 16 16 16 16 16 16 16 16
18 18 18 18 18 18 18 18 18 18 18 18 18 18 18 18 18 18 18 18 17 17 17 17 17 17 17 17 17 16 17 16 16 16 16 16 16 16 16 16 16 16 15
18 18 18 18 18 18 18 18 18 18 18 18 18 18 18 18 18 18 18 17 17 17 17 17 17 16 16 16 16 16 16 16 16 16 16 16 16 16 16 15 15 15 15
18 18 18 18 18 18 18 18 18 18 18 18 18 18 18 18 17 17 17 17 17 17 17 16 16 16 16 16 16 16 16 16 16 16 16 16 16 15 15 15 15 15 15
18 18 18 18 18 18 18 18 18 18 18 18 18 18 18 18 17 17 17 17 16 16 16 16 16 16 16 16 15 15 15 15 15 15 15 15 15 15 15 15 15 15 15
18 18 18 18 18 18 18 18 18 18 18 18 18 18 18 18 18 17 16 16 16 16 16 15 15 15 15 15 15 15 15 15 15 15 15 15 15 15 15 15 14 14 14
18 18 18 18 18 18 18 18 18 18 18 18 18 18 18 17 17 17 16 16 16 15 15 15 15 15 15 15 15 15 15 15 15 15 14 14 14 14 14 14 14 14 14
19 19 18 18 18 18 18 18 18 18 17 18 18 17 17 17 17 17 17 16 15 15 15 14 14 14 14 14 14 14 14 14 14 14 14 14 14 14 14 14 13 13 13
19 18 18 18 18 18 17 17 17 17 17 17 17 17 17 17 17 17 17 16 15 15 14 14 14 14 14 14 14 14 14 14 14 14 14 13 13 13 13 13 13 13 13
18 18 18 18 18 18 18 17 17 17 17 17 17 17 17 17 17 17 17 16 16 15 14 14 13 13 13 13 13 13 13 13 13 13 13 13 13 13 13 13 13 12 12
18 18 18 17 17 17 17 17 17 17 17 17 17 17 17 17 17 16 16 16 16 16 14 14 13 13 13 13 13 13 13 13 13 13 13 13 13 13 12 12 12 12 12
18 18 18 17 17 17 17 17 17 17 17 16 16 16 16 16 16 16 16 16 16 15 15 14 13 13 13 13 13 13 13 13 13 12 12 12 12 12 12 12 12 12 12
18 18 18 17 17 17 17 17 17 16 16 16 16 16 16 16 16 16 16 16 15 15 15 14 13 13 13 13 12 12 12 12 12 12 12 12 12 12 11 11 11 11 11
18 18 18 17 17 17 17 16 16 16 16 16 16 16 16 16 16 15 15 15 15 15 14 14 13 13 13 12 12 12 12 12 12 12 11 11 11 11 11 11 11 11 11
18 18 18 17 17 17 16 16 16 16 16 16 16 16 16 15 15 15 15 15 15 14 14 14 13 13 12 12 12 12 12 12 11 11 11 11 11 11 11 11 11 10 10
18 18 17 17 17 17 16 16 16 16 16 16 16 16 15 15 15 15 15 14 14 14 14 13 13 12 12 12 12 12 12 12 11 11 11 11 10 10 10 10 10 10 10
18 18 17 17 17 17 16 16 16 16 16 15 15 15 15 15 15 14 14 14 14 14 14 13 13 13 12 12 12 12 12 11 11 11 11 11 10 10 10 10 10 10 9
18 17 17 17 17 17 17 16 16 16 15 15 15 15 14 14 14 14 14 14 14 13 13 13 13 13 13 12 12 12 12 11 11 11 11 11 10 10 10 10 10 10 9
18 17 17 17 17 17 16 16 16 15 15 15 15 14 14 14 14 14 14 14 13 13 13 13 13 13 13 12 12 12 11 11 11 11 11 11 10 10 10 10 10 10 9
18 17 17 17 17 16 16 16 15 15 15 15 14 14 14 14 14 14 13 13 13 13 13 13 13 12 12 12 12 11 11 11 11 11 11 11 10 10 10 10 10 9 9
17 17 16 16 16 16 16 16 15 15 14 14 14 14 14 14 14 13 13 13 13 13 13 12 12 12 12 12 11 11 11 11 11 11 11 10 10 10 10 10 10 9 9
Wind_Speed
1 2 1 1 1 3 3 2 1 0 0 1 1 1 1 1 4 7 9 13 14 12 12 11 10 10 11 11 11 11 11 11 11 11 10 10 10 10 9 9 9 9 9
1 1 1 1 1 0 1 1 1 1 1 1 0 1 1 2 3 5 7 8 11 11 11 10 10 10 11 11 10 10 10 10 11 11 11 11 11 11 10 10 10 10 10
1 1 1 1 1 1 0 1 0 1 1 1 2 1 1 2 2 4 5 6 7 8 9 10 9 9 9 10 10 10 10 10 10 11 11 12 12 12 12 11 11 11 11
0 1 1 1 1 1 1 1 1 0 0 0 1 1 1 2 2 3 4 5 6 6 7 8 9 8 8 9 9 10 10 10 11 11 11 11 12 13 13 13 12 12 12
0 1 0 0 1 0 1 1 1 1 1 0 0 1 2 1 2 2 3 4 5 6 6 7 8 7 6 6 7 9 9 8 9 10 10 10 10 12 12 12 12 12 12
1 1 0 1 1 1 1 1 1 0 1 1 1 0 1 1 2 2 2 3 4 5 5 6 6 6 5 4 4 5 6 6 7 8 8 9 9 9 10 11 12 12 12
2 1 2 1 1 0 0 1 0 1 1 2 1 1 1 2 2 2 2 2 3 5 6 6 6 5 5 4 3 2 2 3 5 5 6 7 7 8 8 8 9 10 11
2 2 1 1 1 0 0 1 0 1 1 1 1 1 1 1 2 2 3 3 3 4 5 5 5 6 5 5 3 2 2 1 2 3 3 4 5 7 8 8 8 9 10
2 2 1 1 2 1 1 1 0 1 1 1 1 1 1 1 1 1 3 3 3 3 3 5 6 8 8 6 5 3 2 1 1 2 2 2 2 2 4 6 6 6 6
2 1 2 2 2 2 2 1 1 1 1 2 1 1 0 2 2 1 2 3 3 4 3 4 6 8 8 8 7 6 4 3 4 4 3 3 3 2 2 2 3 4 4
2 1 2 2 2 1 2 2 2 1 1 1 2 1 1 1 1 1 1 1 3 3 4 5 5 7 9 9 8 8 8 8 7 6 6 5 4 4 4 4 4 4 3
2 2 3 2 1 2 2 1 2 1 1 1 2 2 1 0 1 1 2 2 2 3 4 4 4 6 8 9 9 10 11 11 10 10 9 8 7 7 7 6 7 6 6
2 2 2 2 2 2 2 2 1 2 2 1 2 2 1 1 1 2 3 2 2 2 3 4 4 5 7 9 9 11 11 12 12 12 11 11 11 11 10 10 9 9 8
2 3 2 2 2 3 3 2 2 2 2 2 2 1 1 1 1 2 2 3 3 2 2 3 3 5 7 9 10 10 10 12 12 12 12 12 12 11 11 11 11 10 10
2 3 2 2 2 2 2 2 2 3 3 2 2 3 2 1 1 1 2 3 3 3 2 2 1 3 6 8 9 10 10 12 12 12 12 12 12 12 12 12 12 12 11
3 3 2 2 2 2 3 3 2 3 3 3 2 3 2 1 1 0 1 1 2 3 3 2 2 2 4 7 10 11 11 12 11 11 11 11 11 12 12 12 12 12 12
2 2 2 2 2 3 3 3 3 3 4 3 3 4 3 3 2 2 2 2 3 4 5 3 3 2 3 4 7 9 10 9 9 10 11 12 12 13 12 12 12 12 12
2 2 2 2 2 3 3 3 3 4 4 4 4 4 3 3 3 2 2 3 3 4 6 6 4 3 2 3 4 5 7 8 9 10 11 12 12 12 12 12 12 12 12
3 2 2 2 2 3 3 3 3 4 4 4 4 4 4 4 3 2 3 3 3 4 5 6 5 3 2 3 3 4 5 6 9 11 11 11 11 12 11 11 11 11 11
4 3 2 2 2 3 3 3 3 4 4 4 4 4 4 4 3 2 3 3 3 4 4 5 5 4 3 2 3 3 4 3 4 8 9 10 11 11 10 9 9 9 9
4 3 3 2 2 3 3 3 1 4 4 4 4 5 5 6 7 4 3 3 3 3 3 4 5 4 3 3 2 2 3 3 3 4 5 7 8 7 7 7 7 7 7
4 4 3 3 3 3 5 6 4 3 3 3 3 3 4 5 6 7 7 6 5 4 3 3 3 4 4 3 1 2 2 3 2 2 3 4 6 4 7 7 8 7 6
4 4 4 4 5 4 5 6 5 2 3 3 3 2 3 4 4 3 4 5 6 5 4 4 4 4 4 3 3 2 2 2 1 2 2 2 3 4 7 9 11 10 8
4 3 4 5 5 4 4 4 4 1 3 3 3 3 4 4 4 3 3 4 4 4 3 3 3 2 3 2 1 2 3 2 2 2 2 2 3 3 5 9 13 12 10
5 4 4 4 4 3 2 2 3 1 3 3 3 4 4 4 6 6 3 4 4 3 5 7 6 6 6 4 2 1 2 2 2 2 1 1 2 2 3 4 11 14 13
5 4 4 4 5 4 2 1 1 1 3 3 3 4 6 5 5 6 2 2 3 2 3 3 3 4 5 4 3 2 2 1 1 1 1 1 1 1 1 2 6 10 11
Wind_Direction
72 54 19 35 165 169 162 191 223 274 256 231 229 194 154 135 109 118 142 160 164 169 175 180 186 190 192 197 202 204 206 210 210 209 211 210 212 211 207 208 209 210 212
94 92 38 7 305 338 127 181 179 160 192 194 210 54 68 71 95 120 142 164 173 177 182 187 195 201 201 203 206 207 209 215 217 215 216 214 215 215 214 216 216 217 218
128 194 169 195 246 243 176 257 268 171 197 185 156 160 128 120 125 133 151 164 172 179 186 189 196 202 204 209 213 213 214 217 221 221 220 219 220 220 220 222 222 224 224
132 214 182 177 226 221 228 219 243 247 133 46 97 146 156 136 149 156 158 157 159 167 178 184 188 193 201 207 212 213 213 216 221 222 223 224 225 225 226 228 228 227 227
7 303 82 78 285 291 272 272 100 22 359 10 233 193 189 167 161 144 129 138 141 148 160 177 179 179 187 201 213 213 211 215 217 220 222 223 224 226 228 232 229 225 224
89 337 201 78 333 315 335 26 46 258 242 244 262 10 83 137 124 115 133 114 128 138 137 145 156 160 161 168 196 210 215 216 218 219 219 222 223 223 225 230 228 224 222
65 49 33 31 309 343 329 312 0 231 218 186 174 119 87 95 104 109 100 99 96 102 110 119 128 141 148 159 171 186 208 220 221 216 216 220 222 221 220 222 224 225 225
51 62 78 329 33 350 3 323 268 276 259 195 182 172 135 69 60 82 87 86 83 83 93 103 104 110 109 113 114 116 104 113 182 190 193 208 217 221 220 224 225 226 229
80 34 36 17 357 22 59 280 351 300 277 281 190 181 167 156 96 63 80 88 86 79 70 81 86 87 88 91 86 90 92 67 89 102 121 165 173 182 209 215 221 225 224
106 88 51 31 3 4 22 340 55 316 286 306 298 276 206 129 156 104 55 65 70 69 65 68 78 85 90 85 78 76 82 82 85 81 71 69 78 94 126 168 181 180 183
124 75 72 40 0 17 10 339 347 344 338 309 309 321 336 123 130 154 144 91 66 53 57 61 68 77 80 82 76 69 74 79 85 83 77 76 76 81 87 96 105 110 124
125 82 85 46 9 9 348 360 344 9 360 327 310 310 309 102 168 158 164 147 110 82 68 58 65 78 82 79 78 79 79 81 81 81 78 76 75 80 80 82 83 84 86
110 85 60 49 26 8 11 16 3 13 7 330 302 300 299 273 160 143 147 146 123 121 88 62 59 82 88 87 84 83 85 87 86 84 82 79 76 76 76 76 75 74 74
86 89 86 66 35 15 15 14 14 20 22 353 345 4 344 351 108 143 150 142 138 122 95 88 64 74 89 94 94 92 87 88 88 87 85 83 79 76 76 74 73 73 72
99 79 72 77 48 24 14 18 32 28 21 21 21 34 26 10 60 111 146 157 148 142 128 128 110 90 103 104 108 102 95 93 93 92 90 87 85 81 78 77 74 73 71
50 56 53 60 52 36 29 39 44 42 43 33 38 48 32 24 41 62 139 124 110 130 128 120 104 111 113 120 116 112 104 100 100 100 98 94 90 87 83 80 77 75 74
88 76 58 64 64 51 48 51 54 56 53 40 35 42 35 28 24 32 56 89 106 116 124 117 108 109 91 104 120 121 118 110 105 105 102 97 93 89 86 83 81 78 75
122 106 90 62 69 65 58 55 51 56 55 48 44 39 36 43 40 39 58 79 104 120 135 135 138 137 126 128 140 146 132 125 119 115 113 109 103 98 92 87 83 80 77
126 116 106 92 68 62 65 63 64 60 59 52 47 44 39 41 41 48 68 84 102 118 129 137 145 143 145 148 142 132 128 130 129 130 125 118 113 106 99 95 91 87 83
141 135 125 110 97 74 60 57 74 72 70 65 57 52 45 41 37 49 76 84 103 114 129 140 146 149 146 156 147 148 132 133 132 138 133 133 128 117 111 107 102 97 94
145 136 124 115 122 109 69 48 75 95 79 76 70 66 66 69 61 56 71 74 104 124 134 142 142 134 133 145 158 157 140 134 129 133 140 147 144 135 131 125 118 114 109
140 140 131 114 91 83 62 49 37 82 80 77 76 84 96 80 73 79 83 82 86 108 128 133 135 144 148 152 151 149 148 149 154 157 151 161 157 157 153 147 149 142 135
141 133 122 107 95 77 58 49 33 71 88 79 68 51 71 75 73 77 93 96 78 75 99 131 139 149 151 159 164 158 143 161 166 178 163 162 157 153 151 157 162 162 162
142 141 132 128 123 104 65 44 17 91 99 83 70 65 79 66 40 41 99 94 88 64 71 115 129 132 136 125 155 157 160 157 169 173 154 173 170 160 154 165 177 179 180
152 155 149 145 134 121 88 42 10 141 127 109 87 62 73 74 43 36 84 96 96 96 83 97 114 131 142 145 120 120 155 176 182 170 164 187 161 143 155 169 188 192 193
161 164 154 153 145 142 142 90 21 220 148 134 114 97 81 79 60 37 64 101 117 117 109 108 118 152 173 181 188 189 183 198 193 161 166 183 180 146 165 173 177 192 204
Height
1545 1546 1547 1547 1548 1549 1549 1550 1550 1551 1552 1552 1553 1554 1555 1555 1555 1556 1556 1557 1557 1558 1559 1559 1560 1561 1561 1562 1563 1564 1565 1565 1566 1568 1568 1569 1570 1571 1572 1573 1574 1575 1576
1545 1546 1547 1547 1548 1549 1550 1550 1550 1551 1551 1552 1553 1554 1554 1555 1555 1555 1556 1556 1557 1557 1558 1558 1559 1560 1560 1561 1561 1562 1563 1564 1565 1566 1567 1567 1568 1569 1570 1571 1572 1573 1574
1545 1546 1547 1547 1548 1549 1550 1550 1550 1551 1551 1552 1552 1553 1553 1554 1554 1555 1555 1555 1556 1556 1557 1557 1558 1558 1559 1559 1560 1560 1561 1562 1562 1563 1564 1565 1566 1567 1568 1569 1570 1570 1571
1545 1546 1546 1547 1548 1548 1549 1549 1550 1550 1551 1551 1552 1552 1553 1553 1553 1554 1554 1554 1554 1555 1555 1556 1556 1556 1557 1557 1558 1558 1559 1559 1560 1561 1561 1562 1563 1564 1565 1566 1567 1568 1569
1545 1545 1546 1546 1547 1548 1548 1549 1549 1549 1549 1550 1550 1551 1552 1552 1553 1553 1553 1553 1553 1553 1554 1554 1554 1554 1555 1555 1555 1556 1556 1557 1557 1558 1558 1559 1559 1560 1561 1562 1563 1564 1565
1545 1545 1546 1546 1546 1547 1547 1548 1548 1548 1548 1549 1549 1550 1550 1551 1551 1552 1552 1552 1553 1553 1552 1552 1552 1552 1552 1553 1553 1554 1554 1554 1555 1555 1556 1556 1556 1557 1558 1559 1559 1560 1561
1545 1545 1545 1546 1546 1546 1546 1547 1547 1547 1547 1548 1548 1549 1549 1550 1550 1550 1551 1551 1552 1552 1551 1551 1551 1551 1551 1551 1551 1551 1552 1552 1552 1552 1553 1553 1553 1554 1554 1555 1556 1556 1557
1545 1546 1545 1546 1546 1546 1546 1546 1546 1547 1547 1547 1548 1548 1549 1550 1550 1550 1550 1550 1550 1550 1550 1550 1549 1549 1549 1550 1550 1550 1550 1550 1549 1550 1550 1550 1550 1551 1551 1551 1552 1553 1554
1546 1546 1546 1546 1546 1546 1546 1546 1546 1546 1546 1546 1547 1548 1548 1548 1549 1549 1549 1549 1549 1549 1549 1549 1548 1548 1548 1548 1548 1548 1547 1547 1547 1547 1547 1547 1547 1547 1548 1548 1548 1549 1550
1545 1545 1545 1545 1545 1545 1545 1545 1545 1545 1545 1545 1546 1546 1547 1546 1547 1548 1549 1549 1549 1549 1549 1548 1548 1547 1547 1546 1546 1546 1546 1545 1545 1545 1545 1545 1545 1545 1545 1545 1545 1546 1546
1545 1545 1545 1545 1545 1545 1544 1544 1544 1544 1544 1544 1544 1544 1545 1545 1545 1546 1547 1548 1548 1548 1548 1548 1547 1547 1546 1546 1545 1545 1545 1544 1544 1544 1543 1543 1543 1543 1543 1542 1543 1543 1544
1545 1545 1545 1544 1544 1544 1544 1543 1543 1543 1542 1542 1543 1543 1543 1544 1544 1544 1545 1546 1547 1547 1547 1547 1547 1546 1546 1545 1545 1545 1544 1543 1543 1542 1542 1542 1541 1541 1541 1541 1541 1541 1541
1545 1544 1544 1544 1543 1543 1543 1543 1542 1542 1542 1541 1541 1542 1542 1542 1542 1543 1543 1544 1545 1547 1547 1547 1547 1546 1546 1545 1545 1544 1543 1543 1542 1542 1541 1541 1541 1540 1540 1540 1540 1540 1540
1544 1544 1543 1543 1542 1542 1542 1541 1541 1541 1540 1540 1540 1540 1541 1541 1541 1541 1542 1542 1543 1545 1546 1547 1547 1547 1546 1546 1545 1544 1543 1543 1543 1542 1541 1541 1541 1540 1540 1540 1539 1539 1540
1544 1543 1543 1542 1542 1542 1541 1541 1540 1540 1540 1539 1539 1539 1540 1540 1540 1540 1541 1541 1542 1543 1545 1546 1546 1547 1546 1546 1545 1545 1544 1544 1544 1543 1542 1542 1541 1541 1540 1540 1540 1539 1539
1543 1543 1543 1542 1542 1541 1541 1540 1540 1539 1539 1539 1539 1539 1538 1539 1539 1539 1540 1540 1540 1541 1542 1544 1545 1546 1546 1546 1546 1545 1545 1545 1544 1544 1543 1543 1542 1541 1541 1540 1540 1539 1539
1542 1542 1542 1542 1541 1541 1541 1540 1540 1539 1539 1538 1538 1538 1538 1538 1538 1538 1539 1539 1539 1540 1541 1543 1544 1545 1546 1546 1546 1545 1545 1545 1545 1545 1544 1543 1543 1542 1541 1541 1540 1540 1539
1541 1541 1542 1542 1541 1541 1540 1540 1539 1539 1538 1538 1538 1537 1537 1537 1537 1537 1538 1538 1538 1539 1540 1541 1543 1544 1545 1546 1546 1545 1546 1546 1545 1545 1544 1544 1543 1543 1542 1542 1541 1540 1540
1540 1541 1541 1541 1541 1541 1541 1540 1539 1539 1538 1538 1537 1537 1537 1536 1536 1537 1537 1537 1538 1539 1540 1540 1542 1543 1544 1545 1546 1547 1547 1546 1546 1546 1545 1545 1544 1544 1543 1543 1542 1541 1540
1539 1540 1540 1540 1540 1540 1540 1540 1539 1539 1538 1538 1537 1537 1536 1536 1536 1536 1536 1537 1537 1538 1539 1540 1541 1543 1544 1545 1546 1546 1546 1547 1547 1546 1546 1546 1545 1545 1544 1544 1543 1542 1541
1539 1539 1539 1539 1540 1540 1540 1540 1539 1539 1538 1538 1537 1536 1536 1536 1536 1536 1536 1536 1537 1538 1538 1539 1540 1541 1542 1543 1544 1545 1546 1546 1547 1547 1546 1546 1546 1545 1545 1544 1543 1543 1542
1538 1538 1539 1539 1539 1539 1539 1539 1539 1538 1538 1538 1537 1537 1536 1536 1536 1536 1536 1536 1536 1537 1537 1538 1539 1540 1541 1542 1543 1544 1545 1545 1546 1547 1546 1546 1546 1545 1545 1544 1544 1543 1542
1537 1537 1538 1538 1538 1538 1539 1538 1538 1538 1538 1538 1537 1537 1537 1536 1536 1535 1535 1536 1536 1536 1537 1537 1538 1538 1539 1540 1542 1543 1543 1544 1544 1545 1546 1546 1546 1545 1545 1545 1544 1543 1543
1535 1536 1536 1537 1537 1538 1538 1538 1538 1538 1537 1537 1537 1537 1536 1536 1536 1536 1535 1535 1535 1536 1536 1537 1537 1538 1539 1539 1540 1542 1542 1543 1544 1544 1545 1545 1545 1545 1544 1544 1544 1543 1543
1533 1534 1535 1535 1536 1537 1537 1537 1537 1537 1537 1537 1537 1536 1536 1536 1536 1536 1535 1535 1535 1535 1536 1536 1537 1537 1538 1539 1539 1540 1541 1542 1542 1543 1543 1544 1544 1544 1543 1543 1543 1543 1543
1531 1533 1534 1534 1535 1535 1536 1536 1536 1536 1536 1536 1536 1536 1536 1536 1536 1535 1535 1535 1534 1535 1535 1536 1536 1537 1537 1538 1538 1539 1540 1540 1541 1541 1542 1542 1542 1543 1542 1542 1542 1542 1542